Weather History for Beaufort, NC

Change the Weather History Date:

Saturday, August 24, 2013

  Actual Average Record
Temperature  
Mean Temperature 76 °F -  
Max Temperature 82 °F 86 °F 95 °F (1968)
Min Temperature 71 °F 69 °F 59 °F (1985)
Cooling Degree Days 11    
Growing Degree Days 26 (Base 50)    
Moisture  
Dew Point 68 °F    
Average Humidity 82    
Maximum Humidity 100    
Minimum Humidity 58    
Precipitation  
Precipitation 0.03 in - - ()
Sea Level Pressure  
Sea Level Pressure 30.11 in    
Wind  
Wind Speed 9 mph (NNE)    
Max Wind Speed 18 mph    
Max Gust Speed 26 mph    
Visibility 9 miles    
Events Rain    
Averages and records for this station are not official NWS values.
T = Trace of Precipitation, MM = Missing Value Source: NWS Daily Summary

Daily Weather History Graph

Daily Weather History Graph

Search for Another Location

Airport:

Trip Planner

Search our weather history database for the weather conditions in past years. The results will help you decide how hot, cold, wet, or windy it might be!

Date:

Astronomy

Aug. 24, 2013 Rise Set
Actual Time 6:33 AM EDT 7:43 PM EDT
Civil Twilight 6:07 AM EDT 8:09 PM EDT
Nautical Twilight 5:36 AM EDT 8:40 PM EDT
Astronomical Twilight 5:04 AM EDT 9:12 PM EDT
Moon 9:49 PM EDT (8/24) 10:19 AM EDT (8/24)
Length of Visible Light 14h 01m
Length of Day
13h 09m
Waning Gibbous, 84% of the Moon is Illuminated
Aug 24
Waning Gibbous
Aug 28
Last Quarter
Sep 5
New
Sep 12
First Quarter
Sep 19
Full

Hourly Weather History & Observations

Time (EDT) Temp. Heat Index Dew Point Humidity Pressure Visibility Wind Dir Wind Speed Gust Speed Precip Events Conditions
12:58 AM 73.0 °F - 73.0 °F 100% 30.01 in 9.0 mi Calm Calm - 0.01 in Rain Light Rain
1:51 AM 73.4 °F - 73.4 °F 100% 30.02 in 7.0 mi NNW 5.8 mph - 0.01 in Rain Light Rain
1:58 AM 73.9 °F - 72.0 °F 93% 30.03 in 7.0 mi NW 5.8 mph - 0.01 in Rain Light Rain
2:16 AM 73.4 °F - 71.6 °F 94% 30.02 in 8.0 mi NNW 8.1 mph - 0.01 in Rain Light Rain
2:36 AM 73.4 °F - 71.6 °F 94% 30.02 in 10.0 mi NNW 11.5 mph - 0.01 in   Mostly Cloudy
2:46 AM 71.6 °F - 71.6 °F 100% 30.02 in 10.0 mi North 8.1 mph - 0.01 in   Partly Cloudy
2:58 AM 72.0 °F - 71.1 °F 97% 30.02 in 10.0 mi North 9.2 mph - 0.01 in   Partly Cloudy
3:32 AM 71.6 °F - 71.6 °F 100% 30.01 in 8.0 mi NNW 10.4 mph - N/A   Partly Cloudy
3:55 AM 71.6 °F - 71.6 °F 100% 30.01 in 5.0 mi North 9.2 mph - N/A   Mostly Cloudy
3:58 AM 72.0 °F - 71.1 °F 97% 30.01 in 5.0 mi North 10.4 mph - N/A   Mostly Cloudy
4:51 AM 71.6 °F - 71.6 °F 100% 30.03 in 4.0 mi North 11.5 mph - N/A   Overcast
4:58 AM 72.0 °F - 71.1 °F 97% 30.04 in 5.0 mi North 10.4 mph - N/A   Overcast
5:44 AM 71.6 °F - 69.8 °F 94% 30.05 in 9.0 mi NNE 10.4 mph 18.4 mph N/A   Mostly Cloudy
5:58 AM 71.1 °F - 68.0 °F 90% 30.06 in 10.0 mi NNE 9.2 mph - N/A   Mostly Cloudy
6:23 AM 71.6 °F - 69.8 °F 94% 30.06 in 10.0 mi North 9.2 mph - N/A   Mostly Cloudy
6:58 AM 72.0 °F - 68.0 °F 87% 30.09 in 10.0 mi North 9.2 mph - N/A   Overcast
7:58 AM 73.0 °F - 70.0 °F 90% 30.10 in 9.0 mi NNE 11.5 mph - N/A   Partly Cloudy
8:58 AM 73.9 °F - 68.0 °F 82% 30.12 in 10.0 mi NNE 18.4 mph 26.5 mph N/A   Mostly Cloudy
9:16 AM 75.2 °F - 68.0 °F 78% 30.12 in 10.0 mi NNE 11.5 mph 19.6 mph N/A   Scattered Clouds
9:58 AM 75.9 °F - 66.9 °F 74% 30.13 in 10.0 mi NNE 15.0 mph 23.0 mph N/A   Partly Cloudy
10:23 AM 77.0 °F - 68.0 °F 74% 30.14 in 10.0 mi North 13.8 mph 19.6 mph N/A   Mostly Cloudy
10:58 AM 78.1 °F - 68.0 °F 71% 30.16 in 10.0 mi North 11.5 mph - N/A   Mostly Cloudy
11:05 AM 77.0 °F - 66.2 °F 69% 30.16 in 10.0 mi North 15.0 mph 23.0 mph N/A   Mostly Cloudy
11:58 AM 79.0 °F - 66.9 °F 66% 30.16 in 10.0 mi NNE 13.8 mph 21.9 mph N/A   Scattered Clouds
12:58 PM 81.0 °F 82.7 °F 64.9 °F 58% 30.17 in 10.0 mi NE 12.7 mph 25.3 mph N/A   Partly Cloudy
1:58 PM 81.0 °F 83.3 °F 66.9 °F 62% 30.17 in 10.0 mi NNE 12.7 mph 20.7 mph N/A   Mostly Cloudy
2:58 PM 80.1 °F 82.1 °F 66.0 °F 62% 30.17 in 10.0 mi NE 11.5 mph 20.7 mph N/A   Mostly Cloudy
3:58 PM 81.0 °F 82.7 °F 64.9 °F 58% 30.17 in 10.0 mi NE 16.1 mph 24.2 mph N/A   Clear
4:58 PM 78.1 °F - 66.9 °F 68% 30.17 in 10.0 mi NE 10.4 mph 24.2 mph N/A   Mostly Cloudy
5:58 PM 77.0 °F - 64.9 °F 66% 30.19 in 10.0 mi NE 12.7 mph 26.5 mph N/A   Partly Cloudy
6:58 PM 77.0 °F - 64.0 °F 64% 30.19 in 10.0 mi NE 11.5 mph 18.4 mph N/A   Clear
7:58 PM 73.9 °F - 64.9 °F 73% 30.20 in 10.0 mi NE 9.2 mph - N/A   Clear
8:58 PM 73.0 °F - 64.9 °F 76% 30.22 in 10.0 mi NNE 8.1 mph - N/A   Clear
9:58 PM 73.0 °F - 64.0 °F 73% 30.23 in 10.0 mi NE 9.2 mph - N/A   Clear
10:58 PM 72.0 °F - 64.0 °F 76% 30.23 in 10.0 mi NNE 8.1 mph - N/A   Clear
11:58 PM 71.1 °F - 63.0 °F 75% 30.24 in 10.0 mi NNE 8.1 mph - N/A   Clear